Location: Colebrook
(42.0017°N, 73.0973°W)
Time: 15:49:00
(UTC-05:00)

Vanguard 2 - Pass Details

Date: 28 October 2021
Orbit: 554 x 2936 km, 32.9° (Epoch: 04 December)

Event Time Altitude Azimuth Distance (km) Brightness Sun altitude
Exits shadow 02:57:17 19° 112° (ESE) 2,800 10.5 -48.0°
Drops below altitude 10° 02:59:01 10° 106° (ESE) 3,260 11.0 -47.8°
Sets 03:01:24 0° 101° (E) 3,971 11.6 -47.4°
